Location: Angwan Shehu
(11.2514°N, 7.4613°E)
Time: 22:06:00
(UTC+00:00)

SR - Pass Details

Date: 23 April 2021
Orbit: 573 x 882 km, 66.7° (Epoch: 10 May)

Event Time Altitude Azimuth Distance (km) Brightness Sun altitude
Rises 16:15:19 0° 336° (NNW) 3,302 ? 20.1°
Reaches altitude 10° 16:17:50 10° 335° (NNW) 2,326 ? 19.5°
Maximum altitude 16:23:08 74° 250° (WSW) 759 ? 18.2°
Drops below altitude 10° 16:27:57 10° 166° (SSE) 2,120 ? 17.0°
Sets 16:30:10 0° 164° (SSE) 2,987 ? 16.5°
